Weather History for Springfield, MO

Change the Weather History Date:

Sunday, January 27, 2013

  Actual Average Record
Temperature  
Mean Temperature 48 °F 33 °F  
Max Temperature 55 °F 44 °F 67 °F (1914)
Min Temperature 41 °F 22 °F -7 °F (1963)
Degree Days  
Heating Degree Days 17 32  
Month to date heating degree days 793 879  
Since 1 July heating degree days 2440 2689  
Cooling Degree Days 0 0  
Month to date cooling degree days 0 0  
Year to date cooling degree days 0 0  
Moisture  
Dew Point 42 °F    
Average Humidity 66    
Maximum Humidity 93    
Minimum Humidity 38    
Precipitation  
Precipitation 0.02 in 0.07 in 1.49 in (1968)
Month to date precipitation 1.40 2.16  
Year to date precipitation 1.40 2.16  
Snow  
Snow 0.00 in - - ()
Month to date snowfall 0.1  
Since 1 July snowfall 1.4  
Snow Depth 0.00 in    
Sea Level Pressure  
Sea Level Pressure 30.00 in    
Wind  
Wind Speed 18 mph (SSE)    
Max Wind Speed 26 mph    
Max Gust Speed 35 mph    
Visibility 10 miles    
Events Rain    
T = Trace of Precipitation, MM = Missing Value Source: NWS Daily Summary

Daily Weather History Graph

Daily Weather History Graph

Search for Another Location

Airport:

Trip Planner

Search our weather history database for the weather conditions in past years. The results will help you decide how hot, cold, wet, or windy it might be!

Date:

Astronomy

Jan. 27, 2013 Rise Set
Actual Time 7:20 AM CST 5:33 PM CST
Civil Twilight 6:52 AM CST 6:00 PM CST
Nautical Twilight 6:21 AM CST 6:32 PM CST
Astronomical Twilight 5:50 AM CST 7:03 PM CST
Moon 6:25 PM CST (1/27) 7:15 AM CST (1/27)
Length of Visible Light 11h 08m
Length of Day
10h 12m
Full, 100% of the Moon is Illuminated
Jan 27
Full
Feb 3
Last Quarter
Feb 10
New
Feb 17
First Quarter
Feb 25
Full

Hourly Weather History & Observations

Time (CST) Temp. Windchill Dew Point Humidity Pressure Visibility Wind Dir Wind Speed Gust Speed Precip Events Conditions
12:52 AM 45.0 °F 37.4 °F 27.0 °F 49% 30.14 in 10.0 mi SSE 18.4 mph - 0.00 in Rain Light Rain
1:01 AM 44.1 °F 37.1 °F 28.0 °F 53% 30.13 in 10.0 mi SSE 15.0 mph 25.3 mph 0.00 in Rain Light Rain
1:52 AM 44.1 °F 35.9 °F 30.9 °F 60% 30.12 in 10.0 mi SSE 19.6 mph 27.6 mph 0.00 in Rain Light Rain
2:52 AM 42.1 °F 34.2 °F 33.1 °F 70% 30.13 in 10.0 mi SSE 16.1 mph - 0.01 in Rain Light Rain
3:52 AM 41.0 °F 31.4 °F 34.0 °F 76% 30.10 in 10.0 mi SSE 21.9 mph - 0.00 in Rain Light Rain
4:52 AM 41.0 °F 31.9 °F 35.1 °F 79% 30.06 in 10.0 mi SSE 19.6 mph 29.9 mph 0.00 in Rain Light Rain
5:11 AM 41.0 °F 31.4 °F 35.1 °F 79% 30.06 in 10.0 mi SSE 21.9 mph 29.9 mph 0.00 in   Overcast
5:34 AM 41.0 °F 31.4 °F 35.1 °F 79% 30.06 in 10.0 mi SSE 21.9 mph 27.6 mph 0.00 in   Overcast
5:52 AM 42.1 °F 33.1 °F 35.1 °F 76% 30.07 in 10.0 mi SSE 20.7 mph - 0.00 in   Overcast
6:43 AM 42.1 °F 34.2 °F 35.1 °F 76% 30.06 in 10.0 mi SSE 16.1 mph 24.2 mph N/A   Overcast
6:52 AM 42.1 °F 33.9 °F 35.1 °F 76% 30.07 in 10.0 mi South 17.3 mph 26.5 mph N/A   Overcast
7:52 AM 42.1 °F 32.6 °F 35.1 °F 76% 30.06 in 10.0 mi SSE 23.0 mph 31.1 mph N/A   Overcast
8:16 AM 42.1 °F 32.8 °F 36.0 °F 79% 30.06 in 10.0 mi SE 21.9 mph - 0.00 in Rain Light Rain
8:52 AM 43.0 °F 34.8 °F 36.0 °F 76% 30.06 in 10.0 mi SSE 18.4 mph 25.3 mph 0.00 in   Overcast
9:52 AM 45.0 °F 36.9 °F 37.9 °F 76% 30.05 in 10.0 mi SSE 20.7 mph - N/A   Overcast
10:52 AM 46.9 °F - 39.9 °F 77% 30.05 in 10.0 mi SSE 19.6 mph 28.8 mph N/A   Overcast
11:19 AM 48.0 °F - 41.0 °F 77% 30.02 in 10.0 mi SSE 20.7 mph 27.6 mph N/A   Scattered Clouds
11:52 AM 48.9 °F - 43.0 °F 80% 30.02 in 10.0 mi SSE 19.6 mph - N/A   Partly Cloudy
12:52 PM 51.1 °F - 45.0 °F 80% 29.98 in 10.0 mi SSE 23.0 mph 29.9 mph N/A   Clear
1:52 PM 48.9 °F - 46.0 °F 90% 29.94 in 10.0 mi SSE 23.0 mph 27.6 mph 0.01 in   Overcast
2:52 PM 50.0 °F - 46.9 °F 89% 29.93 in 10.0 mi SSE 20.7 mph 29.9 mph N/A   Overcast
3:52 PM 52.0 °F - 48.0 °F 86% 29.91 in 10.0 mi SSE 20.7 mph - N/A   Clear
4:52 PM 53.1 °F - 48.9 °F 86% 29.90 in 10.0 mi South 17.3 mph 27.6 mph N/A   Clear
5:52 PM 53.1 °F - 48.9 °F 86% 29.91 in 10.0 mi South 18.4 mph - N/A   Clear
6:17 PM 53.1 °F - 50.0 °F 89% 29.93 in 10.0 mi South 16.1 mph - N/A   Mostly Cloudy
6:52 PM 54.0 °F - 50.0 °F 86% 29.94 in 10.0 mi SSE 12.7 mph - N/A   Overcast
7:52 PM 54.0 °F - 51.1 °F 90% 29.94 in 10.0 mi South 16.1 mph - N/A   Overcast
8:52 PM 54.0 °F - 51.1 °F 90% 29.93 in 10.0 mi South 15.0 mph - N/A   Overcast
9:42 PM 54.0 °F - 51.1 °F 90% 29.91 in 10.0 mi SSE 15.0 mph - N/A   Scattered Clouds
9:52 PM 53.6 °F - 51.8 °F 94% 29.91 in 10.0 mi South 15.0 mph - N/A   Partly Cloudy
10:18 PM 54.0 °F - 51.1 °F 90% 29.92 in 10.0 mi South 12.7 mph - N/A   Mostly Cloudy
10:52 PM 55.0 °F - 52.0 °F 89% 29.93 in 10.0 mi South 11.5 mph - N/A   Overcast
11:27 PM 55.0 °F - 52.0 °F 89% 29.93 in 10.0 mi South 12.7 mph - N/A   Overcast
11:52 PM 55.0 °F - 52.0 °F 89% 29.93 in 10.0 mi South 15.0 mph - N/A   Overcast